Humidity-temperature Sensor

Selected Measurement Type: Air Temperature

 
Air Temperature [°C]     6 entries per hour
Showing data from 2/19/2023 (00:00:00 Z) to 2/16/2023 (00:01:00 Z)
Previous Next [ Day | 3-Days | 7-Days ]
First Last
Prev [ Day | 3-Days | 7-Days ] Next
First Last

Start Time:     :
End Time:     :     
Time (in GMT) :00 :50 :40 :30 :20 :10
Previous Next [ Day | 3-Days | 7-Days ]
First Last
Prev [ Day | 3-Days | 7-Days ] Next
First Last


123 => good data
MM => data is determined as missing
-- => data not received/configured
Back to Top Back to Top
2/19/2023 00:00 to 23:10 27.00 26.91 26.92 26.88 26.89 27.03
2/18/2023 23:00 to 22:10 26.85 26.98 26.95 26.99 27.01 26.94
2/18/2023 22:00 to 21:10 27.08 27.18 27.04 27.02 27.18 27.12
2/18/2023 21:00 to 20:10 27.10 27.23 27.16 27.20 27.32 27.34
2/18/2023 20:00 to 19:10 27.23 27.34 27.29 27.20 27.39 27.46
2/18/2023 19:00 to 18:10 27.40 27.53 27.34 27.28 27.64 27.29
2/18/2023 18:00 to 17:10 27.22 27.33 27.27 27.52 27.33 27.31
2/18/2023 17:00 to 16:10 27.28 27.28 27.34 27.27 27.35 27.23
2/18/2023 16:00 to 15:10 27.24 27.15 27.20 27.11 27.15 27.07
2/18/2023 15:00 to 14:10 27.14 27.24 27.01 27.03 26.98 27.02
2/18/2023 14:00 to 13:10 26.83 26.84 26.96 26.91 26.75 26.70
2/18/2023 13:00 to 12:10 26.84 26.86 26.74 26.86 26.79 26.85
2/18/2023 12:00 to 11:10 26.82 26.84 26.71 26.84 26.85 26.74
2/18/2023 11:00 to 10:10 26.85 26.81 26.86 26.97 26.76 26.91
2/18/2023 10:00 to 9:10 26.86 26.99 26.96 26.92 26.70 26.88
2/18/2023 09:00 to 8:10 26.82 26.86 26.90 27.03 26.95 26.86
2/18/2023 08:00 to 7:10 26.86 27.18 26.81 26.99 26.85 26.84
2/18/2023 07:00 to 6:10 27.05 27.00 26.90 26.90 26.95 26.95
2/18/2023 06:00 to 5:10 27.03 27.09 26.95 27.01 27.04 27.07
2/18/2023 05:00 to 4:10 27.07 27.23 26.94 26.99 27.05 26.89
2/18/2023 04:00 to 3:10 27.14 26.92 26.91 27.02 26.86 26.81
2/18/2023 03:00 to 2:10 26.87 26.88 26.94 27.07 26.87 26.88
2/18/2023 02:00 to 1:10 26.90 26.93 26.94 26.89 26.95 26.82
2/18/2023 01:00 to 0:10 26.79 26.82 26.83 26.77 26.71 26.80
2/18/2023 00:00 to 23:10 26.73 26.75 26.76 26.74 26.70 26.69
2/17/2023 23:00 to 22:10 26.70 26.76 26.61 26.62 26.71 26.77
2/17/2023 22:00 to 21:10 26.90 26.90 26.71 26.75 26.77 26.74
2/17/2023 21:00 to 20:10 26.73 26.82 26.70 26.68 26.63 26.69
2/17/2023 20:00 to 19:10 26.78 26.66 26.77 26.63 26.77 26.52
2/17/2023 19:00 to 18:10 26.72 26.71 26.68 26.59 26.57 26.70
2/17/2023 18:00 to 17:10 26.53 26.65 26.72 26.77 26.88 26.76
2/17/2023 17:00 to 16:10 26.70 26.69 26.79 26.85 26.67 26.75
2/17/2023 16:00 to 15:10 26.67 26.68 26.67 26.78 26.70 26.61
2/17/2023 15:00 to 14:10 26.73 26.66 26.57 26.56 26.62 26.49
2/17/2023 14:00 to 13:10 26.67 26.48 26.64 26.45 26.60 26.48
2/17/2023 13:00 to 12:10 26.54 26.51 26.47 26.46 26.48 26.40
2/17/2023 12:00 to 11:10 26.35 26.18 26.24 26.31 26.39 26.48
2/17/2023 11:00 to 10:10 26.38 26.37 26.49 26.41 26.47 26.30
2/17/2023 10:00 to 9:10 26.43 26.40 26.75 26.35 26.41 26.50
2/17/2023 09:00 to 8:10 26.58 26.47 26.57 26.57 26.49 26.51
2/17/2023 08:00 to 7:10 26.52 26.61 26.61 26.71 26.56 26.61
2/17/2023 07:00 to 6:10 26.54 26.68 26.71 26.56 26.58 26.64
2/17/2023 06:00 to 5:10 26.78 26.80 26.71 26.82 26.54 26.82
2/17/2023 05:00 to 4:10 26.77 26.78 26.81 26.78 26.92 26.82
2/17/2023 04:00 to 3:10 26.96 26.94 26.89 26.84 26.97 26.86
2/17/2023 03:00 to 2:10 26.87 26.86 26.89 26.92 26.86 27.00
2/17/2023 02:00 to 1:10 26.91 27.15 27.03 27.04 26.93 27.06
2/17/2023 01:00 to 0:10 26.98 27.03 27.01 26.94 26.86 26.92
2/17/2023 00:00 to 23:10 26.90 26.93 27.11 27.16 26.91 27.04
2/16/2023 23:00 to 22:10 27.02 27.01 27.17 27.06 27.14 27.02
2/16/2023 22:00 to 21:10 27.13 27.11 27.04 27.11 27.06 27.17
2/16/2023 21:00 to 20:10 27.09 27.03 26.98 27.28 27.11 27.23
2/16/2023 20:00 to 19:10 27.13 27.01 26.95 27.01 26.93 26.95
2/16/2023 19:00 to 18:10 27.10 26.98 26.88 26.93 27.05 26.90
2/16/2023 18:00 to 17:10 26.95 27.00 26.73 26.87 26.80 26.90
2/16/2023 17:00 to 16:10 26.91 26.83 26.92 26.97 26.88 26.81
2/16/2023 16:00 to 15:10 26.97 27.02 26.84 26.71 26.74 26.67
2/16/2023 15:00 to 14:10 26.75 26.84 26.74 26.92 26.57 26.87
2/16/2023 14:00 to 13:10 26.63 26.67 26.66 26.64 26.64 26.42
2/16/2023 13:00 to 12:10 26.32 26.46 26.43 26.24 26.39 26.43
2/16/2023 12:00 to 11:10 26.32 26.56 26.52 26.43 26.53 26.45
2/16/2023 11:00 to 10:10 26.47 26.50 26.54 26.57 26.50 26.40
2/16/2023 10:00 to 9:10 26.42 26.54 26.50 26.38 26.42 26.45
2/16/2023 09:00 to 8:10 26.44 26.56 26.52 26.35 26.43 26.34
2/16/2023 08:00 to 7:10 26.35 26.48 26.46 26.49 26.57 26.77
2/16/2023 07:00 to 6:10 26.57 26.50 26.65 26.84 26.69 26.55
2/16/2023 06:00 to 5:10 26.71 26.61 26.64 26.54 26.69 26.66
2/16/2023 05:00 to 4:10 26.69 26.80 26.76 26.72 26.93 26.76
2/16/2023 04:00 to 3:10 26.61 26.97 26.80 26.75 26.84 26.69
2/16/2023 03:00 to 2:10 26.98 26.66 26.76 26.85 26.70 26.80
2/16/2023 02:00 to 1:10 26.84 26.85 26.92 26.85 26.85 26.86
2/16/2023 01:00 to 0:10 26.88 26.70 26.73 26.98 26.82 26.79